Location: Llanbadrig
(53.4167°N, 4.4333°W)
Time: 17:51:37
(UTC+00:00)

Daily predictions for brighter satellites

Satellite Brightness Start Highest point End
(mag) Time Altitude Azimuth Time Altitude Azimuth Time Altitude Azimuth
Lacrosse 5 2.0 17:24:51 10° WSW 17:29:56 75° NNW 17:35:02 10° ENE
Cosmos 2056 Rocket 4.3 17:25:29 10° SW 17:30:31 53° WNW 17:35:34 10° NNE
YAOGAN 6 2.9 17:27:05 10° S 17:30:45 77° WSW 17:34:28 10° NNW
CZ-4 R/B 2.6 17:28:06 10° ESE 17:30:59 20° ENE 17:33:51 10° NNE
CZ-4B R/B 3.4 17:26:12 10° SSE 17:31:49 84° WSW 17:37:21 10° NNW
ADEOS Rocket 3.2 17:25:36 10° NNE 17:31:51 77° ESE 17:38:50 10° SSW
Cosmos 1400 Rocket 4.4 17:29:22 10° SE 17:31:53 16° E 17:34:23 10° NE
Cosmos 1356 Rocket 3.5 17:27:47 10° S 17:32:03 78° ESE 17:36:23 10° NNE
ERBS 2.6 17:30:49 10° W 17:34:08 62° NNW 17:37:29 10° ENE
Meteor 1-16 Rocket 4.2 17:33:32 10° S 17:39:08 82° E 17:44:37 10° NNE
USA 281 3.7 17:33:52 10° SSE 17:40:25 70° WSW 17:47:01 10° NNW
Cosmos 1908 3.2 17:37:05 10° S 17:40:54 76° E 17:44:48 10° NNE
Cosmos 2227 Rocket 2.5 17:35:38 10° NNW 17:41:05 46° NE 17:46:32 10° ESE
H-2A R/B 4.2 17:37:21 10° S 17:41:35 42° W 17:45:55 10° NNW
Cosmos 1656 Rocket 4.0 17:37:16 10° SW 17:42:50 73° WNW 17:48:33 10° NNE
NOSS 2-1 (E) 3.5 17:40:50 10° WSW 17:44:10 60° NW 17:48:05 10° NE
Cosmos 1892 3.9 17:41:16 10° NNE 17:44:22 22° ENE 17:47:27 10° ESE
Cosmos 1452 Rocket 3.6 17:41:29 10° SSW 17:46:46 89° ESE 17:52:05 10° NNE
CZ-4B R/B 1.7 17:43:43 10° NNE 17:46:52 42° E 17:49:54 10° S
USA 305 2.9 17:42:34 10° W 17:46:55 86° N 17:51:12 10° E
Cosmos 2263 Rocket 3.7 17:43:46 10° NNW 17:47:49 19° NNE 17:51:44 10° ENE
COSMO-SKYMED 1 3.5 17:44:57 10° NE 17:48:43 28° E 17:52:29 10° SSE
CSL-04 DEB 4.3 17:45:02 10° NNE 17:49:02 89° WNW 17:52:56 10° SSW
SL-4 R/B 1.9 17:48:36 10° WSW 17:52:04 63° S 17:55:22 13° E
H-2A R/B 2.3 17:48:27 10° NNE 17:52:39 69° WNW 17:56:45 10° SSW
USA 306 2.9 17:48:56 10° W 17:53:15 88° N 17:57:16 12° E
Timation 2 Rocket 4.2 17:47:33 10° NW 17:54:08 89° NE 18:00:56 10° SSE
CSL-04 Rocket 4.5 17:49:31 10° ESE 17:54:16 30° ENE 17:59:00 10° N
GEOS 3 Rocket 3.9 17:49:54 10° ESE 17:55:08 57° NE 18:00:27 10° NW
Cosmos 1346 Rocket 3.9 17:52:04 10° N 17:55:20 23° ENE 17:58:34 10° ESE
Cosmos 1953 3.5 17:52:27 10° SSW 17:56:16 45° WNW 18:00:07 10° N
SMAP 3.9 17:52:32 10° S 17:57:07 57° WSW 18:01:44 10° NNW
Cosmos 1408 3.9 17:55:55 10° NNE 17:58:41 20° ENE 18:01:18 11° ESE
Cosmos 1825 Rocket 3.7 17:55:18 10° NNW 17:59:48 82° W 18:04:13 10° S
H-2A R/B 2.9 17:55:08 10° ESE 17:59:52 31° ENE 18:04:37 10° N
Cosmos 1300 3.0 17:56:23 10° SSE 18:00:00 43° E 18:03:39 10° NNE
CZ-2D R/B 3.5 17:56:57 10° SE 18:00:35 44° ENE 18:04:14 10° N
Okean O Rocket 2.7 17:58:01 10° S 18:02:15 49° W 18:06:30 10° NNW
COSMOS 2455 4.5 17:58:01 10° WNW 18:02:45 23° N 18:07:28 10° NE
Cosmos 1697 Rocket 4.2 18:00:44 10° SE 18:03:31 14° E 18:04:15 14° E
YAOGAN 1 3.0 18:04:05 10° SE 18:08:07 40° ENE 18:12:11 10° N
Cosmos 1825 3.6 18:05:33 10° NNE 18:08:16 18° ENE 18:09:07 17° E
NOAA 11 4.4 18:06:40 10° S 18:12:06 76° WSW 18:17:35 10° NNW
IRS-1C Rocket 4.1 18:10:28 10° SSE 18:15:44 86° ENE 18:21:04 10° NNW
ERS-2 2.3 18:15:38 10° NNE 18:19:18 75° WNW 18:22:55 10° SSW
Cosmos 1689 Rocket 2.3 18:16:37 10° NNE 18:19:24 41° E 18:22:10 10° S
Cosmos 1726 Rocket 3.5 18:15:11 10° S 18:19:31 70° E 18:23:54 10° NNE
Cosmos 2297 Rocket 2.2 18:15:37 10° NNW 18:21:20 88° ENE 18:27:01 10° SSE
Cosmos 1553 Rocket 4.3 18:15:29 10° SSE 18:21:28 46° E 18:27:23 10° NNE
Cosmos 1340 2.5 18:18:05 10° N 18:21:53 70° ENE 18:25:39 10° SSE
NOSS 3-4 (A) 4.1 18:15:51 10° NW 18:22:13 48° NNE 18:27:19 19° E
NOSS 3-4 (C) 4.1 18:15:57 10° NW 18:22:19 47° NNE 18:27:24 19° E
Cosmos 2369 Rocket 3.8 18:17:59 10° WSW 18:23:02 32° NW 18:28:09 10° NNE
SAR-Lupe-4 3.4 18:19:41 10° NNE 18:23:18 71° ESE 18:26:53 10° S
In-Cosmos 22 Rocket 4.0 18:19:00 10° N 18:24:22 72° ENE 18:29:47 10° SSE
Cosmos 1331 Rocket 3.9 18:20:41 10° SSW 18:25:50 80° ESE 18:31:01 10° NNE
Cosmos 2228 3.2 18:26:03 10° SSW 18:30:18 73° WNW 18:34:37 10° N
SeaSat 1 2.7 18:29:14 17° ESE 18:32:48 50° NE 18:37:35 10° NNW
CSL-04 Debris 4.3 18:27:56 10° SE 18:33:13 55° ENE 18:38:34 10° N
Okean-O 2.5 18:29:26 10° SSE 18:33:52 82° ENE 18:38:20 10° NNW
Cosmos 1818 4.4 18:28:58 10° WSW 18:34:13 47° NW 18:39:20 11° NE
Cosmos 1606 Rocket 3.8 18:30:25 10° SSW 18:34:46 70° WNW 18:39:13 10° N
USA 307 3.0 18:31:29 10° WNW 18:35:47 76° SSW 18:38:09 26° ESE
SKYMED 2 3.5 18:32:40 10° NNE 18:37:03 75° ESE 18:41:23 10° S
USA 215 3.3 18:36:03 21° E 18:40:36 73° NNE 18:47:08 10° WNW
USA 308 3.0 18:36:20 10° WNW 18:40:38 73° SSW 18:42:48 28° ESE
SAR-Lupe-1 4.1 18:37:18 10° NNE 18:40:55 81° WNW 18:44:30 10° SSW
SL-08 R/B 4.4 18:34:59 10° N 18:41:14 83° E 18:47:22 10° SSE
Cosmos 968 Rocket 3.4 18:37:20 10° NNW 18:42:37 88° ENE 18:47:49 10° SSE
Cosmos 1745 Rocket 4.0 18:36:38 10° N 18:42:54 66° ENE 18:49:12 10° SSE
Geosat FO 4.5 18:41:21 21° SE 18:43:43 77° NE 18:47:14 10° NNW
Cosmos 1939 Rocket 3.7 18:39:52 10° S 18:43:44 51° W 18:47:34 10° NNW
ATLAS 2AS CENTAUR R/B 3.2 18:36:53 10° NW 18:44:26 51° NNE 18:48:34 25° E
Helios 1A Rocket 3.3 18:41:59 10° S 18:46:06 68° WSW 18:50:12 10° NNW
HJ-1C 3.6 18:46:16 44° E 18:46:41 47° ENE 18:49:57 10° N
Cosmos 2151 4.0 18:44:11 10° N 18:47:11 26° NE 18:47:11 26° NE
Cosmos 2219 3.8 18:44:20 10° NW 18:50:00 59° WSW 18:55:39 10° SSE
Meteor 2-15 4.5 18:44:19 10° S 18:50:19 56° E 18:56:18 10° NNE
Aureole 3 2.6 18:48:15 10° SSW 18:51:21 84° WNW 18:54:20 10° N
CZ-4C R/B 3.4 18:47:22 10° NW 18:53:23 41° NNE 18:57:03 25° ENE
Cosmos 1110 Rocket 4.5 18:48:25 10° SW 18:53:37 62° WNW 18:58:49 10° NNE
Cosmos 1302 Rocket 3.9 18:50:46 10° SSW 18:56:01 77° ESE 19:01:21 10° NNE
PSLV R/B 3.9 18:52:28 10° NNE 18:56:42 86° WNW 19:00:51 10° SSW
MOS 1 Rocket 3.5 18:52:30 10° NNE 18:56:56 45° E 19:01:37 10° S
SJ-11-01 4.1 18:53:03 10° SSE 18:57:43 75° ENE 19:02:25 10° NNW
Cosmos 44 3.1 18:53:52 10° SW 18:58:26 82° SE 19:01:00 28° NE
Cosmos 1386 Rocket 4.5 18:52:03 10° N 18:58:30 79° ENE 19:04:53 10° SSE
Cosmos 1486 Rocket 4.3 18:53:11 10° NNW 18:58:32 71° WSW 19:03:49 10° SSE
Cosmos 2082 3.6 18:53:44 10° NNW 18:59:31 84° ENE 19:03:45 19° SE
CZ-2C R/B 3.3 18:54:24 10° SSE 19:00:13 82° WSW 19:05:53 10° NNW
SJ-6B 4.3 19:01:54 23° NNE 19:01:54 23° NNE 19:04:10 10° N
Cosmos 1943 Rocket 4.4 18:57:24 10° WNW 19:01:08 18° NNW 19:04:52 10° NNE
Cosmos 2058 2.8 18:57:42 10° N 19:01:50 89° E 19:05:56 10° S
FALCON 9 DEB 3.0 18:59:42 10° W 19:03:08 76° S 19:03:22 71° SE
Cosmos 2278 Rocket 4.4 19:02:29 10° NNW 19:05:08 13° N 19:07:47 10° NNE
CZ-4 R/B 2.1 19:01:56 10° S 19:05:44 52° W 19:09:31 10° NNW
Cosmos 2058 Rocket 3.4 19:01:32 10° SSW 19:06:01 68° WNW 19:10:32 10° N
Aureole 3 Rocket 3.6 19:02:26 10° SSW 19:06:32 71° WNW 19:12:21 10° N
Cosmos 1400 Rocket 3.2 19:03:47 10° SSW 19:07:52 66° WNW 19:11:57 10° N
Cosmos 1503 Rocket 3.9 19:02:56 10° NNW 19:08:11 87° ENE 19:11:33 23° SSE
Meteor 2-10 Rocket 3.4 19:04:56 10° S 19:10:11 67° E 19:15:17 10° NNE
ERBS 3.0 19:07:30 10° WNW 19:10:39 43° N 19:10:39 43° N
ATLAS 5 CENTAUR R/B 3.3 19:07:18 10° WNW 19:11:17 28° N 19:13:42 20° NNE
DMSP B5D1-3 4.4 19:07:18 10° NNE 19:12:26 64° ESE 19:17:33 10° S
Cosmos 1709 Rocket 4.0 19:06:27 10° N 19:12:49 65° ENE 19:17:52 17° SSE
Lacrosse 5 2.2 19:08:19 10° WNW 19:13:20 57° N 19:14:46 42° ENE
Timation 1 Rocket 4.2 19:07:31 10° NNW 19:13:35 77° NE 19:16:23 34° SE
BREEZE-M R/B 4.0 19:09:53 10° W 19:13:59 58° S 19:16:54 33° ESE
Cosmos 2369 4.3 19:10:27 10° S 19:14:49 37° SE 19:14:49 37° SE
ARGOS 3.0 19:13:21 16° SSE 19:17:50 82° ENE 19:23:18 10° NNW
CZ-4B R/B 4.3 19:16:35 10° NNW 19:18:51 18° WNW 19:21:04 10° WSW
Cosmos 1354 Rocket 3.9 19:13:50 10° NNW 19:19:07 88° WSW 19:21:46 30° SSE
Cosmos 1892 3.9 19:16:33 10° NNW 19:20:15 42° W 19:23:56 10° SSW
Cosmos 1844 Rocket 4.2 19:17:27 10° NNW 19:21:41 21° NNE 19:22:09 21° NE
COSMO-SKYMED 1 3.8 19:20:55 10° N 19:25:02 42° WNW 19:29:07 10° SW
Cosmos 2227 Rocket 3.3 19:19:51 10° NW 19:25:10 43° WSW 19:30:28 10° S
Cosmos 1656 3.5 19:20:17 10° SSW 19:25:53 84° ESE 19:29:34 23° NNE
USA 305 3.5 19:22:39 10° WNW 19:26:48 48° SSW 19:27:20 45° S
SJ 16-02 3.4 19:24:44 10° N 19:26:22 17° NNE 19:26:22 17° NNE
SL-4 R/B 2.4 19:27:55 10° W 19:30:57 50° SW 19:30:57 50° SW
Cosmos 1346 Rocket 3.9 19:28:05 10° NNW 19:31:53 43° W 19:35:21 12° SSW
Meteor 2-1 Rocket 4.0 19:26:45 10° S 19:32:15 86° ESE 19:37:51 10° NNE
Cosmos 883 Rocket 4.3 19:26:53 10° S 19:32:58 66° E 19:39:03 10° NNE
Cosmos 2263 Rocket 2.3 19:27:29 10° NNW 19:33:04 53° NE 19:33:26 52° ENE
USA 306 3.6 19:29:01 10° WNW 19:33:07 44° SSW 19:33:25 44° SSW
Cosmos 1076 Rocket 3.9 19:29:35 10° NNW 19:33:47 62° W 19:35:40 31° SSW
Cosmos 2315 Rocket 3.9 19:27:48 10° S 19:33:51 57° E 19:39:55 10° NNE
Cosmos 1408 3.8 19:30:26 10° NNW 19:33:54 42° W 19:35:41 24° SSW
CSL-04 Rocket 4.2 19:28:50 10° S 19:34:18 60° WSW 19:39:47 10° NNW
EO 1 Delta rocket 4.3 19:30:00 10° NNE 19:34:03 48° NE 19:34:03 48° NE
Resurs 01 Rocket 3.8 19:38:27 15° NNE 19:38:27 15° NNE 19:39:29 10° N
Cosmos 1992 Rocket 3.8 19:31:05 10° SSW 19:36:16 72° ESE 19:36:36 69° E
S3M 4.0 19:30:20 10° SSW 19:36:28 81° W 19:42:41 10° N
Meteor 2-17 Rocket 4.5 19:32:21 10° N 19:38:18 54° ENE 19:38:21 54° ENE
H-2A R/B 2.8 19:33:42 10° S 19:39:01 57° W 19:44:25 10° NNW
Cosmos 1825 3.0 19:40:23 10° NNW 19:43:57 50° W 19:43:57 50° W
YAOGAN 1 4.5 19:40:32 10° SSW 19:44:20 29° W 19:48:09 10° NNW
Geosat 3.9 19:43:37 61° NE 19:44:32 88° ESE 19:49:35 10° SSW
Ariane Rocket 2.9 19:44:55 76° ENE 19:44:55 76° ENE 19:49:59 10° NNW
Cosmos 1697 Rocket 2.6 19:40:53 10° SSW 19:46:04 67° SE 19:46:04 67° SE
COSMOS 2455 4.1 19:45:36 10° NW 19:50:40 26° NNE 19:51:18 26° NNE
IRS-1A Rocket 4.1 19:53:18 72° SSE 19:53:55 88° ENE 19:59:29 10° NNW
MOS 1 4.2 20:02:28 82° S 20:02:45 88° WSW 20:08:28 10° NNW
SL-08 RB Rocket 4.4 20:06:54 51° W 20:06:54 51° W 20:11:07 10° NNW
SeaSat 1 3.7 20:09:02 30° SSW 20:10:28 36° WSW 20:15:02 10° NW
NOSS 3-4 (A) 3.8 20:06:49 10° NW 20:13:39 76° SW 20:14:46 64° SSE
NOSS 3-4 (C) 3.8 20:06:55 10° NW 20:13:46 77° SW 20:14:51 65° SSE
Cosmos 2227 4.3 20:11:22 10° NNW 20:16:20 69° NW 20:16:20 69° NW
USA 215 3.3 20:23:25 66° SSW 20:23:44 67° SSW 20:30:16 10° WNW
Meteor 2-3 Rocket 4.0 20:19:36 10° NNW 20:24:42 66° NW 20:24:42 66° NW
NOSS 3-3 (A) 4.3 20:19:51 10° SW 20:24:23 56° SW 20:24:23 56° SW
NOSS 3-3 (C) 4.3 20:19:57 10° SW 20:24:30 56° SW 20:24:30 56° SW
ATLAS 2AS CENTAUR R/B 2.8 20:28:18 10° NW 20:35:53 72° SW 20:36:01 72° SW
CZ-4C R/B 2.8 20:35:58 10° NW 20:42:14 75° NNW 20:42:14 75° NNW
Cosmos 2184 Rocket 4.5 20:43:49 10° NNW 20:48:51 56° NW 20:48:51 56° NW
Cosmos 2278 Rocket 4.2 20:47:16 10° NNW 20:49:50 19° N 20:49:50 19° N
Lacrosse 5 3.7 20:51:32 10° WNW 20:53:58 29° WNW 20:53:58 29° WNW
ATLAS 5 CENTAUR R/B 3.9 20:52:45 10° NW 20:55:14 24° NNW 20:55:14 24° NNW
CZ-2C R/B 4.5 20:54:32 10° N 20:56:48 24° N 20:56:48 24° N
Cosmos 1844 Rocket 4.3 21:01:07 10° NNW 21:03:49 28° NNW 21:03:49 28° NNW
SJ 16-02 4.2 21:02:44 10° NNW 21:03:21 14° NNW 21:03:21 14° NNW
Cosmos 2263 Rocket 3.8 21:11:41 10° NW 21:15:08 30° WNW 21:15:08 30° WNW
ATLAS CENTAUR R/B 4.5 21:20:43 10° W 21:44:42 78° N 21:45:31 75° NE
